Вернуться в каталог

STARLINK-36494

АктивенСвязьVLEO
NORAD 67331·PAYLOAD·🇺🇸 United States

Запущен Jan 4, 2026 с Cape Canaveral Space Force Station

Loading…

Ближайшие Пролёты (ближайшие 24 часа)

TLE

СвежийSource: CelesTrak SupGP

Эпоха: Sep 14, 2026, 22:37 UTC

1 67331C 26002AC  26257.94284722 -.00021407  00000+0 -77526-3 0  2572
2 67331  43.0037 336.4942 0001793 272.8173  40.9048 15.27592937    16

Отслеживайте STARLINK-36494 в реальном времени с AllMySat

Download on the App Store